Weather History for KSRB - November, 2012

Change the Weather History Date:

Wednesday, November 7, 2012

  Actual Average (KCSV) Record (KCSV)
Temperature  
Mean Temperature 40 °F 51 °F  
Max Temperature 46 °F 61 °F 73 °F (2005)
Min Temperature 33 °F 40 °F 21 °F (1993)
Degree Days  
Heating Degree Days 26    
Month to date heating degree days  
Since 1 July heating degree days  
Cooling Degree Days 0    
Month to date cooling degree days  
Year to date cooling degree days  
Moisture  
Dew Point 42 °F    
Average Humidity 98    
Maximum Humidity 100    
Minimum Humidity 87    
Precipitation  
Precipitation 0.00 in 0.14 in 1.66 in (1995)
Month to date precipitation 0.98  
Year to date precipitation 46.02  
Sea Level Pressure  
Sea Level Pressure 29.98 in    
Wind  
Wind Speed 1 mph ()    
Max Wind Speed 8 mph    
Max Gust Speed -    
Visibility 5.5 miles    
Events      
T = Trace of Precipitation, MM = Missing Value Source: Averaged Metar Reports

Daily Weather History Graph

Daily Weather History Graph

Search for Another Location

Airport or City:

Trip Planner

Search our weather history database for the weather conditions in past years. The results will help you decide how hot, cold, wet, or windy it might be!

Date:

Astronomy

Nov. 07, 2012 Rise Set
Actual Time 6:11 AM CST 4:40 PM CST
Civil Twilight 5:44 AM CST 5:06 PM CST
Nautical Twilight 5:13 AM CST 5:37 PM CST
Astronomical Twilight 4:43 AM CST 6:07 PM CST
Moon No Moon Rise 12:37 PM CST (11/7)
Length of Visible Light 11h 22m
Length of Day
10h 28m
Last Quarter, 43% of the Moon is Illuminated
Nov 7
Last Quarter
Nov 13
New
Nov 20
First Quarter
Nov 28
Full
Dec 6
Last Quarter

Hourly Weather History & Observations

Time (CST) Temp. Windchill Dew Point Humidity Pressure Visibility Wind Dir Wind Speed Gust Speed Precip Events Conditions
12:15 AM 42.8 °F - 42.8 °F 100% 29.92 in 4.0 mi Calm Calm - N/A   Overcast
12:35 AM 42.8 °F - 42.8 °F 100% 29.92 in 3.0 mi Calm Calm - N/A   Overcast
12:55 AM 42.8 °F - 42.8 °F 100% 29.91 in 2.0 mi Calm Calm - N/A   Overcast
1:15 AM 42.8 °F - 41.0 °F 93% 29.91 in 2.5 mi Calm Calm - N/A   Mostly Cloudy
1:35 AM 42.8 °F - 41.0 °F 93% 29.90 in 3.0 mi Calm Calm - N/A   Mostly Cloudy
1:55 AM 42.8 °F - 41.0 °F 93% 29.90 in 3.0 mi Calm Calm - N/A   Unknown
2:15 AM 42.8 °F - 42.8 °F 100% 29.90 in 2.5 mi Calm Calm - N/A   Mostly Cloudy
2:55 AM 42.8 °F - 42.8 °F 100% 29.89 in 2.5 mi Calm Calm - N/A   Overcast
3:15 AM 42.8 °F - 42.8 °F 100% 29.89 in 2.5 mi Calm Calm - N/A   Mostly Cloudy
3:35 AM 42.8 °F - 42.8 °F 100% 29.89 in 2.0 mi Calm Calm - N/A   Overcast
3:55 AM 42.8 °F - 42.8 °F 100% 29.89 in 2.0 mi Calm Calm - N/A   Overcast
4:15 AM 42.8 °F - 42.8 °F 100% 29.89 in 2.5 mi Calm Calm - N/A   Mostly Cloudy
4:35 AM 42.8 °F - 42.8 °F 100% 29.89 in 2.5 mi Calm Calm - N/A   Mostly Cloudy
4:55 AM 42.8 °F - 42.8 °F 100% 29.89 in 3.0 mi Calm Calm - N/A   Overcast
5:15 AM 42.8 °F - 42.8 °F 100% 29.89 in 3.0 mi Calm Calm - N/A   Mostly Cloudy
5:35 AM 42.8 °F - 42.8 °F 100% 29.89 in 1.8 mi Calm Calm - N/A   Overcast
5:55 AM 42.8 °F - 42.8 °F 100% 29.89 in 3.0 mi Calm Calm - N/A   Overcast
6:15 AM 42.8 °F - 42.8 °F 100% 29.89 in 5.0 mi Calm Calm - N/A   Overcast
6:35 AM 42.8 °F - 42.8 °F 100% 29.90 in 4.0 mi Calm Calm - N/A   Overcast
6:55 AM 42.8 °F - 42.8 °F 100% 29.91 in 5.0 mi Calm Calm - N/A   Overcast
7:15 AM 42.8 °F - 42.8 °F 100% 29.92 in 7.0 mi Calm Calm - N/A   Overcast
7:35 AM 42.8 °F - 42.8 °F 100% 29.92 in 5.0 mi Calm Calm - N/A   Overcast
7:55 AM 42.8 °F - 42.8 °F 100% 29.92 in 1.2 mi Calm Calm - N/A   Overcast
8:15 AM 42.8 °F 41.1 °F 42.8 °F 100% 29.93 in 1.8 mi NW 3.5 mph - N/A   Overcast
8:35 AM 42.8 °F - 42.8 °F 100% 29.93 in 1.5 mi Calm Calm - N/A   Overcast
8:55 AM 42.8 °F 41.1 °F 42.8 °F 100% 29.93 in 9.0 mi NNW 3.5 mph - N/A   Mostly Cloudy
9:15 AM 44.6 °F - 42.8 °F 93% 29.93 in 5.0 mi Calm Calm - N/A   Overcast
9:35 AM 42.8 °F 38.6 °F 42.8 °F 100% 29.94 in 1.8 mi NW 6.9 mph - N/A   Overcast
9:55 AM 42.8 °F 39.3 °F 42.8 °F 100% 29.94 in 4.0 mi NW 5.8 mph - N/A   Overcast
10:15 AM 42.8 °F 40.1 °F 42.8 °F 100% 29.95 in 4.0 mi NW 4.6 mph - N/A   Mostly Cloudy
10:35 AM 44.6 °F 43.1 °F 42.8 °F 93% 29.94 in 1.5 mi NNW 3.5 mph - N/A   Overcast
10:55 AM 44.6 °F 41.4 °F 44.6 °F 100% 29.94 in 10.0 mi NNW 5.8 mph - N/A   Overcast
11:15 AM 44.6 °F 40.2 °F 44.6 °F 100% 29.94 in 8.0 mi NNW 8.1 mph - N/A   Overcast
11:35 AM 46.4 °F 43.5 °F 44.6 °F 93% 29.94 in 10.0 mi NNW 5.8 mph - N/A   Mostly Cloudy
11:55 AM 46.4 °F 43.5 °F 44.6 °F 93% 29.94 in 10.0 mi NW 5.8 mph - N/A   Overcast
12:15 PM 44.6 °F 42.2 °F 44.6 °F 100% 29.93 in 10.0 mi NW 4.6 mph - N/A   Overcast
12:35 PM 44.6 °F 41.4 °F 44.6 °F 100% 29.93 in 10.0 mi NW 5.8 mph - N/A   Overcast
12:55 PM 46.4 °F 42.9 °F 44.6 °F 93% 29.94 in 10.0 mi NNW 6.9 mph - N/A   Overcast
1:15 PM 44.6 °F 40.2 °F 42.8 °F 93% 29.94 in 10.0 mi North 8.1 mph - N/A   Overcast
1:35 PM 44.6 °F 41.4 °F 42.8 °F 93% 29.95 in 10.0 mi North 5.8 mph - N/A   Overcast
1:55 PM 44.6 °F 43.1 °F 44.6 °F 100% 29.95 in 5.0 mi North 3.5 mph - N/A   Overcast
2:15 PM 46.4 °F 42.4 °F 44.6 °F 93% 29.95 in 10.0 mi NNW 8.1 mph - N/A   Mostly Cloudy
2:35 PM 46.4 °F 42.4 °F 42.8 °F 87% 29.96 in 10.0 mi North 8.1 mph - N/A   Overcast
2:55 PM 44.6 °F 40.2 °F 42.8 °F 93% 29.97 in 10.0 mi North 8.1 mph - N/A   Overcast
3:15 PM 44.6 °F 43.1 °F 42.8 °F 93% 29.98 in 10.0 mi North 3.5 mph - N/A   Overcast
3:35 PM 44.6 °F 43.1 °F 42.8 °F 93% 29.99 in 10.0 mi NNW 3.5 mph - N/A   Overcast
3:55 PM 44.6 °F 42.2 °F 42.8 °F 93% 30.00 in 8.0 mi North 4.6 mph - N/A   Overcast
4:15 PM 44.6 °F 43.1 °F 42.8 °F 93% 30.01 in 10.0 mi NNW 3.5 mph - N/A   Overcast
4:35 PM 42.8 °F 40.1 °F 42.8 °F 100% 30.01 in 6.0 mi NNW 4.6 mph - N/A   Overcast
4:55 PM 42.8 °F 40.1 °F 42.8 °F 100% 30.02 in 8.0 mi North 4.6 mph - N/A   Overcast
5:15 PM 42.8 °F 41.1 °F 42.8 °F 100% 30.03 in 10.0 mi NNW 3.5 mph - N/A   Mostly Cloudy
5:35 PM 42.8 °F - 42.8 °F 100% 30.05 in 10.0 mi Calm Calm - N/A   Mostly Cloudy
5:55 PM 42.8 °F - 42.8 °F 100% 30.06 in 10.0 mi Calm Calm - N/A   Overcast
6:15 PM 42.8 °F - 42.8 °F 100% 30.06 in 10.0 mi Calm Calm - N/A   Overcast
6:35 PM 42.8 °F - 42.8 °F 100% 30.07 in 10.0 mi Calm Calm - N/A   Overcast
6:55 PM 42.8 °F - 42.8 °F 100% 30.07 in 10.0 mi Calm Calm - N/A   Overcast
7:15 PM 42.8 °F 41.1 °F 42.8 °F 100% 30.08 in 9.0 mi NNW 3.5 mph - N/A   Mostly Cloudy
7:35 PM 42.8 °F - 42.8 °F 100% 30.08 in 8.0 mi Calm Calm - N/A   Mostly Cloudy
7:55 PM 42.8 °F - 41.0 °F 93% 30.09 in 7.0 mi Calm Calm - N/A   Partly Cloudy
8:15 PM 42.8 °F - 41.0 °F 93% 30.10 in 7.0 mi Calm Calm - N/A   Scattered Clouds
8:35 PM 41.0 °F - 41.0 °F 100% 30.10 in 6.0 mi Calm Calm - N/A   Mostly Cloudy
8:55 PM 42.8 °F - 41.0 °F 93% 30.11 in 6.0 mi Calm Calm - N/A   Overcast
9:15 PM 41.0 °F - 41.0 °F 100% 30.10 in 5.0 mi Calm Calm - N/A   Mostly Cloudy
9:35 PM 39.2 °F - 39.2 °F 100% 30.11 in 4.0 mi Calm Calm - N/A   Partly Cloudy
9:55 PM 35.6 °F - 35.6 °F 100% 30.11 in 0.8 mi Calm Calm - N/A   Unknown
10:15 PM 37.4 °F - 37.4 °F 100% 30.11 in 1.2 mi Calm Calm - N/A   Unknown
10:35 PM 35.6 °F - 35.6 °F 100% 30.11 in 0.5 mi Calm Calm - N/A   Unknown
10:55 PM 35.6 °F - 33.8 °F 93% 30.11 in 0.2 mi Calm Calm - N/A   Mostly Cloudy
11:15 PM 33.8 °F - 33.8 °F 100% 30.12 in 0.2 mi Calm Calm - N/A   Unknown
11:35 PM 33.8 °F - 33.8 °F 100% 30.12 in 0.2 mi Calm Calm - N/A   Mostly Cloudy
11:55 PM 33.8 °F - 33.8 °F 100% 30.12 in 0.2 mi Calm Calm - N/A   Overcast